Regional Weather Roundup
Issued by NWS

Home | Current Version | Previous Version | Graphics & Text | Print | Product List | Glossary On
Versions: 1 2 3 4 5 6 7 8 9 10 11 12 13 14 15 16 17 18 19 20 21 22 23 24 25 26 27 28 29 30 31 32 33 34 35 36 37 38 39 40 41 42 43 44 45 46 47 48 49 50
000
ASUS43 KMPX 221410
RWRMN
WEATHER ROUNDUP FOR MINNESOTA
NATIONAL WEATHER SERVICE TWIN CITIES/CHANHASSEN MN
800 AM CST SUN JAN 22 2017


NOTE: "FAIR" INDICATES FEW OR NO CLOUDS BELOW 12,000 FEET WITH NO
SIGNIFICANT WEATHER AND/OR OBSTRUCTIONS TO VISIBILITY. N/A MEANS
CURRENT SKY AND/OR WEATHER CONDITIONS ARE NOT AVAILABLE.

MNZ060>063-068>070-221500-
   Twin Cities Metro

CITY           SKY/WX    TMP DP  RH WIND       PRES   REMARKS
TWIN CITIES    CLOUDY    35  33  92 N6        29.66R WCI  30
ST PAUL        CLOUDY    34  34 100 NW5       29.67R FOG     WCI  30
CRYSTAL        CLOUDY    34  32  92 N6        29.65R FOG     WCI  29
BLAINE         CLOUDY    36  36 100 NW6       29.65R FOG
LAKEVILLE        N/A     34  34 100 NW3       29.66R FOG
EDEN PRAIRIE   CLOUDY    35  34  96 NW5       29.65R FOG     WCI  31
SOUTH ST PAUL  CLOUDY    35  35  99 N3        29.66R FOG
LAKE ELMO      FOG       34  34 100 CALM      29.66R VSB 1/2
$$
MNZ001>005-007-008-013>017-022>024-027-028-221500-
   Northwest Minnesota

CITY           SKY/WX    TMP DP  RH WIND       PRES   REMARKS
BEMIDJI        CLOUDY    32  32 100 CALM      29.66R FOG
HALLOCK        FOG       34  34 100 CALM      29.67S VSB 1/4
ROSEAU         HAZE      34  28  80 CALM      29.68R VSB 1/4
WARROAD        FOG       34  28  80 CALM      29.68R VSB 1
THIEF RVR FALL FOG       33  32  96 CALM      29.68R VSB 1/4
CROOKSTON      FOG       34  34 100 CALM      29.69S VSB 1/4
FOSSTON        FOG       30  30 100 CALM      29.67S VSB<1/4
DETROIT LAKES  FOG       34  34 100 CALM      29.68R VSB 1/2
MOORHEAD       CLOUDY    34  32  93 NW8       29.70S FOG     WCI  27
PARK RAPIDS    CLOUDY    34  32  93 NW3       29.65R
MAHNOMEN       FOG       32  32  99 W3        29.67S VSB 1/4
$$
MNZ006-009>011-018-025>026-221500-
   North Central Minnesota

CITY           SKY/WX    TMP DP  RH WIND       PRES   REMARKS
BAUDETTE       CLOUDY    33  32  96 CALM      29.67R FOG
FLAG ISLAND    CLOUDY    32  32 100 CALM      29.67R
INTL FALLS     FOG       34  32  92 NW3       29.66R VSB 1/2
WASKISH        FOG       34  34 100 CALM      29.67R VSB 1
BIG FORK       FOG       34  34 100 CALM      29.65R VSB 1/2
LONGVILLE      FOG       34  34 100 CALM      29.66R VSB 1/2
GRAND RAPIDS   FOG       34  33  96 NW3       29.66R VSB 1/4
CRANE LAKE     LGT SNOW  30  30 100 CALM      29.67R
ORR            LGT SNOW  32  30  93 CALM      29.63R
COOK           CLOUDY    34  34 100 CALM      29.64S
WALKER         FOG       32  32 100 CALM      29.66R VSB 1/4
$$
MNZ012-019>021-037-221500-
   Northeast Minnesota

CITY           SKY/WX    TMP DP  RH WIND       PRES   REMARKS
DULUTH         FOG       34  34 100 NW3       29.62R VSB 1/2
ELY            LGT SNOW  32  32 100 CALM      29.63R
HIBBING        CLOUDY    32  32 100 N5        29.63R WCI  27
EVELETH        CLOUDY    34  33  98 CALM      29.64R
DULUTH HARBOR  CLOUDY    34  34 100 CALM      29.65R
TWO HARBORS    CLOUDY    37  34  87 CALM      29.61R
SILVER BAY     CLOUDY    36  36 100 CALM      29.61R
GRAND MARAIS     N/A     38  33  82 NE6       29.63R
G MARAIS ARPRT CLOUDY    30  28  93 N7        29.60R WCI  23
$$
MNZ029>031-032-039>041-046>048-054>057-064-221500-
   West Central Minnesota

CITY           SKY/WX    TMP DP  RH WIND       PRES   REMARKS
FERGUS FALLS   FOG       32  32 100 W7        29.74R VSB 1/4 WCI  26
WHEATON        CLOUDY    39  39 100 W8        29.73R FOG
MORRIS         FOG       34  34 100 NW10      29.69R VSB<1/4 WCI  26
ALEXANDRIA     FOG       33  33 100 NW3       29.68R VSB 1/2
ELBOW LAKE     SNOW      32  32 100 NW8       29.70R VSB 1/4 WCI  25
WADENA         CLOUDY    32  32 100 CALM      29.66S FOG
GLENWOOD       FOG       34  34 100 W3        29.69R VSB 1/4
APPLETON       FOG       36  34  93 W7        29.71R VSB 3/4
ORTONVILLE     CLOUDY    34  32  93 NW5       29.71R FOG     WCI  30
MADISON        CLOUDY    36  36 100 NW7       29.72R FOG
WILLMAR        CLOUDY    34  34 100 CALM      29.70R FOG
$$
MNZ033>034-036-042>043-049>051-058-059-221500-
   Central Minnesota

CITY           SKY/WX    TMP DP  RH WIND       PRES   REMARKS
ST CLOUD       CLOUDY    34  34 100 NW5       29.67R FOG     WCI  30
SAUK CENTRE    FOG       32  32 100 CALM      29.68R VSB 1/2
PAYNESVILLE    CLOUDY    33  33 100 NW3       29.69R FOG
AITKIN         CLOUDY    36  32  87 CALM      29.64S FOG
PINE RIVER     FOG       34  34 100 CALM      29.70R VSB 3/4
BRAINERD       CLOUDY    33  33 100 N3        29.66R FOG
STAPLES        CLOUDY    32  32 100 CALM      29.67R FOG
LONG PRAIRIE   CLOUDY    32  32 100 CALM      29.67R FOG
LITTLE FALLS   CLOUDY    32  32 100 CALM      29.67R FOG
LITCHFIELD     CLOUDY    36  36 100 NW5       29.68R FOG
BUFFALO        CLOUDY    34  33  96 CALM      29.67R FOG
MAPLE LAKE     CLOUDY    35  35 100 NW3       29.68R FOG
HUTCHINSON     CLOUDY    34  35 100 NW5       29.69R FOG     WCI  30
$$
MNZ037-044-045-052-053-221500-
   East Central Minnesota

CITY           SKY/WX    TMP DP  RH WIND       PRES   REMARKS
PRINCETON      CLOUDY    36  34  93 CALM      29.67R FOG
MORA           CLOUDY    34  32  93 CALM      29.67R
CAMBRIDGE      CLOUDY    36  36 100 CALM      29.65R FOG
RUSH CITY      CLOUDY    34  34 100 CALM      29.66R FOG
MOOSE LAKE     CLOUDY    34  32  93 CALM      29.63R FOG
HINCKLEY       CLOUDY    34  34 100 CALM      29.64S FOG
CLOQUET        CLOUDY    34  34 100 W5        29.63R WCI  30
MCGREGOR       CLOUDY    34  34 100 W3        29.65R VSB 3/4
$$
MNZ071>073-080-081-089-090-097-098-221500-
   Southwest Minnesota

CITY           SKY/WX    TMP DP  RH WIND       PRES   REMARKS
MONTEVIDEO     CLOUDY    34  34 100 NW7       29.72R FOG     WCI  28
GRANITE FALLS  CLOUDY    35  35 100 W8        29.72R FOG     WCI  28
CANBY          CLOUDY    35  34  97 CALM      29.73R
MARSHALL       CLOUDY    33  33 100 NW12      29.71R FOG     WCI  24
REDWOOD FALLS  CLOUDY    34  33  96 NW6       29.69R FOG     WCI  29
OLIVIA         FOG       34  34 100 NW7       29.68R VSB 3/4 WCI  28
PIPESTONE      CLOUDY    34  34 100 NW13      29.70R FOG     WCI  25
WINDOM         CLOUDY    34  34 100 NW8       29.69R FOG     WCI  27
WORTHINGTON    FOG       33  32  96 NW9       29.70R VSB 3/4 WCI  25
JACKSON        FOG       32  32 100 NW10      29.69R VSB 1/2 WCI  24
TRACY          LGT SNOW  34  34 100 NW9       29.71R WCI  26
SLAYTON        FOG       32  32 100 NW7       29.70R VSB 1   WCI  26
$$
MNZ065>067-074>077-082>085-091>093-221500-
   South Central Minnesota

CITY           SKY/WX    TMP DP  RH WIND       PRES   REMARKS
MANKATO        FOG       34  33  96 NW5       29.68R VSB 3/4 WCI  30
NEW ULM        CLOUDY    34  34 100 NW3       29.69R FOG
ST JAMES       FOG       34  34 100 NW7       29.70R VSB 1/2 WCI  28
FAIRMONT       FOG       34  32  92 NW8       29.69R VSB 1/4 WCI  27
GLENCOE        FOG       35  35 100 NW5       29.67R VSB 3/4 WCI  30
OWATONNA       FOG       34  32  93 W3        29.66R VSB 1/4
WASECA         FOG       32  32 100 NW5       29.67R VSB 1/4 WCI  27
ALBERT LEA     CLOUDY    34  34 100 NW3       29.65R FOG
$$
MNZ078>079-086>088-094>096-221500-
   Southeast Minnesota

CITY           SKY/WX    TMP DP  RH WIND       PRES   REMARKS
ROCHESTER      FOG       32  32 100 W6        29.63R VSB 1/4 WCI  26
RED WING       FOG       36  34  93 W3        29.65R VSB 1/4
STANTON        FOG       35  33  94 CALM      29.65R VSB<1/4
DODGE CENTER   FOG       34  34 100 CALM      29.64R VSB 1/4
WINONA         FOG       34  34 100 CALM      29.65R VSB 1/2
AUSTIN         FOG       34  32  93 NW3       29.64R VSB 1/4
PRESTON        FOG       32  32 100 NW6       29.63R VSB 1/4 WCI  26
$$
ABBREVIATIONS USED IN REMARKS
   TC - TEMPERATURES IN CELSIUS
  WCI - WIND CHILL INDEX
   HX - HEAT INDEX
  VSB - VISIBILITY
$$



USA.gov is the U.S. government's official web portal to all federal, state and local government web resources and services.